Regional Weather Roundup
Issued by NWS

Home | Current Version | Previous Version | Text Only | Print | Product List | Glossary On
Versions: 1 2 3 4 5 6 7 8 9 10 11 12 13 14 15 16 17 18 19 20 21 22 23 24 25 26 27 28 29 30 31 32 33 34 35 36 37 38 39 40 41 42 43 44 45 46 47 48 49 50
000
ASUS43 KOAX 290402
RWRNE

WEATHER ROUNDUP FOR NEBRASKA
NATIONAL WEATHER SERVICE OMAHA NE
1100 PM CDT MON JUL 28 2014

NOTES: SATELLITE DATA IS BEING USED TO AUGMENT CLOUD COVER ABOVE
       12000 FEET.
       "FAIR" INDICATES FEW OR NO CLOUDS BELOW 12,000 FEET WITH NO
       SIGNIFICANT WEATHER AND/OR OBSTRUCTIONS TO VISIBILITY.

  * THESE STATIONS DO NOT REPORT WEATHER SUCH AS RAIN...SNOW OR FOG.

NEZ001>004-019>022-054>056-290500-
NEBRASKA PANHANDLE

CITY           SKY/WX    TMP DP  RH WIND       PRES   REMARKS
SCOTTSBLUFF    CLEAR     72  59  63 SE10      30.23R
ALLIANCE       CLEAR     69  58  67 E9        30.24R
CHADRON        CLEAR     70  55  59 NE8       30.23R
KIMBALL        CLOUDY    66  56  71 S6        30.27F
SIDNEY         CLOUDY    74  53  48 S9        30.27R
$$

NEZ057>060-069>072-079>082-290500-
SOUTHWEST NEBRASKA

CITY           SKY/WX    TMP DP  RH WIND       PRES   REMARKS
NORTH PLATTE   PTCLDY    66  59  78 E8        30.23R
IMPERIAL       CLOUDY    71  57  61 SE14      30.24R
LEXINGTON      PTCLDY    68  59  73 E7        30.23R
MCCOOK         PTCLDY    70  59  68 E7        30.23R
$$

NEZ005>010-023>029-035>040-094-290500-
NORTH CENTRAL NEBRASKA

CITY           SKY/WX    TMP DP  RH WIND       PRES   REMARKS
VALENTINE      PTCLDY    67  51  56 E8        30.25R
AINSWORTH      CLEAR     62  56  82 E6        30.25R
BROKEN BOW     CLEAR     65  57  75 E5        30.23R
ORD            CLEAR     64  57  78 SE5       30.22R
$$

NEZ041-046>049-061>064-073>077-083>087-290500-
SOUTH CENTRAL NEBRASKA

CITY           SKY/WX    TMP DP  RH WIND       PRES   REMARKS
GRAND ISLAND   CLEAR     64  57  78 SE5       30.23R
AURORA         CLEAR     62  59  90 E5        30.22S
HASTINGS       PTCLDY    68  54  60 E7        30.22S
HEBRON         CLEAR     64  56  75 E3        30.21S
HOLDREGE       PTCLDY    66  59  77 E8        30.23R
KEARNEY *      CLEAR     64  57  77 E7        30.23R
YORK           CLEAR     61  57  88 E5        30.22F
$$

NEZ011>018-030>034-042>045-290500-
NORTHEAST NEBRASKA

CITY           SKY/WX    TMP DP  RH WIND       PRES   REMARKS
NORFOLK        CLEAR     60  53  77 CALM      30.21F
ALBION         CLEAR     60  55  84 CALM      30.23R
BLAIR          CLEAR     66  55  67 NW7       30.20R
COLUMBUS *     CLEAR     61  52  72 N5        30.21F
FREMONT        CLEAR     65  56  74 NW3       30.20F
TEKAMAH        CLEAR     62  57  83 NW6       30.19S
WAYNE          CLEAR     58  56  93 CALM      30.22S
$$

NEZ050>053-065>068-078-088>093-290500-
SOUTHEAST NEBRASKA

CITY           SKY/WX    TMP DP  RH WIND       PRES   REMARKS
LINCOLN        CLEAR     62  54  74 N6        30.21S
OMAHA EPPLEY   CLEAR     65  56  72 NW3       30.19R
BEATRICE       CLEAR     61  56  83 NE3       30.20S
FALLS CITY     CLEAR     65  56  72 NW3       30.18R
NEBRASKA CITY  CLEAR     63  54  71 NW3       30.19S
PLATTSMOUTH    CLEAR     63  55  74 W5        30.19S
$$

NEZ044-045-051>053-067-290500-
OMAHA AREA

CITY           SKY/WX    TMP DP  RH WIND       PRES   REMARKS
OMAHA EPPLEY   CLEAR     65  56  72 NW3       30.19R
BLAIR          CLEAR     66  55  67 NW7       30.20R
FREMONT        CLEAR     65  56  74 NW3       30.20F
MILLARD        CLEAR     67  56  69 W5        30.19R
OFFUTT AFB     CLEAR     59  58  96 CALM      30.18S
PLATTSMOUTH    CLEAR     63  55  74 W5        30.19S
WAHOO          FAIR      62  56  81 NW5       30.21R
$$



USA.gov is the U.S. government's official web portal to all federal, state and local government web resources and services.